User: anonymous   Login
Location: Ertinghausen
(51.6624°N, 9.7874°E)
Time: 16:49:03
(UTC+00:00)
Language:

SL-8 R/B - Orbit

View from above orbital plane
View from above orbital plane
View from above satellite
View from above satellite

Ground track
Ground track

The orbit data is extracted from the following two-line orbital elements,

1 33066U 08031G   24204.53361428  .00001221  00000-0  22692-3 0  9994
2 33066  48.4418 217.1560 0008000 282.1447  77.8568 14.71388367864116
Epoch (UTC): 22 July 2024 12:48:24
Eccentricity: 0.0008000
inclination: 48.4418°
perigee height: 651 km
apogee height: 662 km
right ascension of ascending node: 217.1560°
argument of perigee: 282.1447°
revolutions per day: 14.71388367
mean anomaly at epoch: 77.8568°
orbit number at epoch: 86411

The dashed part of the orbit path shows where the satellite is in the earth's shadow,  

DLR